Torna al catalogo

STARLINK-33679

AttivoComunicazioniVLEO
NORAD 63460·PAYLOAD·🇺🇸 United States

Lanciato Apr 6, 2025 da Cape Canaveral Space Force Station

Loading…

Prossimi Passaggi (prossime 24 ore)

TLE

AggiornatoSource: CelesTrak SupGP

Epoca: Sep 15, 2026, 03:44 UTC

1 63460C 25070A   26258.15604167 -.00019609  00000+0 -71023-3 0  2586
2 63460  42.9999 270.1133 0001337 267.5984 306.4988 15.27588275    14

Traccia STARLINK-33679 in tempo reale con AllMySat

Download on the App Store